GW6683 Weather Reports


time (UTC)temp
F
wind
direction
speed
knots
gust
knots
rain 1hr
in
rain 24hr
in
rain mn
in
humidity
%
barometer
mb
20260508210045 81 88 0.9 2.6 0.47 0.13 0.13 92 1012.9
20260508205542 81 88 0.9 1.7 0.00 0.13 0.13 93 1012.9
20260508205038 81 88 0.9 1.7 0.00 0.13 0.13 92 1012.9
20260508204535 81 88 0.0 0.0 0.00 0.13 0.13 91 1012.9
20260508204031 81 58 0.0 0.0 0.00 0.13 0.13 92 1012.5
20260508203527 81 58 0.9 2.6 0.00 0.13 0.13 92 1012.5
20260508203023 81 58 0.9 3.5 0.00 0.13 0.13 91 1012.2
20260508202520 81 58 0.0 0.0 0.00 0.13 0.13 90 1012.2
20260508202017 81 109 0.0 0.0 0.00 0.13 0.13 90 1012.2
20260508201514 80 122 0.9 2.6 0.00 0.13 0.13 91 1011.9
20260508201010 80 77 0.9 2.6 0.00 0.13 0.13 92 1011.9
20260508200507 80 77 0.9 1.7 0.00 0.13 0.13 92 1011.9
20260508200002 79 102 0.9 4.3 0.00 0.13 0.13 92 1011.9
20260508195500 79 79 0.0 1.7 0.00 0.13 0.13 92 1011.9
20260508194956 80 130 2.6 5.2 0.00 0.13 0.13 91 1011.9
20260508194453 79 156 0.9 3.5 0.00 0.13 0.13 92 1011.9
20260508193950 79 53 0.0 2.6 0.00 0.13 0.13 93 1011.9
20260508193447 79 61 0.0 0.0 0.00 0.13 0.13 95 1011.9
20260508192943 79 61 0.0 1.7 0.00 0.13 0.13 94 1011.9
20260508192440 79 44 2.6 5.2 0.00 0.13 0.13 94 1011.9
20260508191937 79 44 0.0 1.7 0.00 0.13 0.13 94 1011.9
20260508191434 79 60 3.5 6.1 0.00 0.13 0.13 93 1011.9
20260508190931 79 44 1.7 4.3 0.00 0.13 0.13 92 1011.9
20260508190428 79 140 0.0 2.6 0.00 0.13 0.13 93 1011.5
20260508185924 79 50 0.9 5.2 0.00 0.13 0.13 93 1011.5
20260508185422 80 72 1.7 2.6 0.00 0.13 0.13 92 1011.5
20260508184919 79 133 3.5 6.1 0.00 0.13 0.13 94 1011.5
20260508184416 79 65 0.9 3.5 0.00 0.13 0.13 94 1011.2
20260508183913 79 65 0.0 0.0 0.00 0.13 0.13 94 1011.2
20260508183409 79 71 2.6 3.5 0.00 0.13 0.13 94 1011.2
20260508182905 79 62 1.7 4.3 0.00 0.13 0.13 94 1011.2
20260508182402 79 42 0.9 3.5 0.00 0.13 0.13 95 1010.8
20260508181857 79 48 1.7 5.2 0.00 0.13 0.13 95 1010.8
20260508181354 78 155 0.9 4.3 0.00 0.13 0.13 95 1010.8
20260508180852 78 180 0.0 1.7 0.00 0.13 0.13 96 1010.5
20260508180348 78 69 0.9 4.3 0.00 0.13 0.13 96 1010.8
20260508175844 78 69 0.9 3.5 0.00 0.13 0.13 96 1010.5
20260508175341 78 69 0.0 1.7 0.00 0.13 0.13 96 1010.5
20260508174839 77 89 1.7 4.3 0.00 0.13 0.13 98 1010.5
20260508174336 77 111 0.0 0.0 0.00 0.13 0.13 99 1010.8
20260508173833 77 111 0.9 2.6 0.00 0.13 0.13 99 1010.5
20260508173330 77 111 0.0 0.0 0.00 0.13 0.13 99 1010.8
20260508172826 77 111 0.0 0.0 0.00 0.12 0.12 100 1010.8
20260508172323 77 111 0.0 0.0 0.00 0.12 0.12 100 1010.8
20260508171820 77 111 0.9 1.7 0.00 0.12 0.12 100 1010.8
20260508171316 77 111 0.0 0.0 0.00 0.12 0.12 99 1010.8
20260508170813 77 111 0.0 0.0 0.00 0.12 0.12 99 1010.8
20260508170311 77 111 0.0 0.0 0.00 0.12 0.12 100 1010.8
20260508165807 77 111 0.0 0.0 0.00 0.12 0.12 99 1010.8
20260508165306 77 111 0.0 0.0 0.00 0.12 0.12 99 1010.5
20260508164800 77 111 0.0 0.0 0.00 0.12 0.12 99 1010.5
20260508164257 77 111 0.9 1.7 0.00 0.12 0.12 99 1010.5
20260508163755 77 111 0.0 0.0 0.00 0.12 0.12 99 1010.5
20260508163253 77 111 0.0 0.0 0.00 0.12 0.12 99 1010.5
20260508162748 77 111 0.0 0.0 0.00 0.12 0.12 99 1010.5
20260508162245 77 111 0.0 0.0 0.00 0.12 0.12 99 1010.5
20260508161742 77 111 0.0 0.0 0.00 0.12 0.12 99 1010.8
20260508161239 77 111 0.0 0.0 0.00 0.12 0.12 99 1010.8
20260508160737 77 111 0.0 0.0 0.00 0.12 0.12 98 1010.8
20260508160236 77 111 0.0 0.0 0.00 0.11 0.11 98 1010.8
20260508155732 77 111 0.0 0.0 0.00 0.11 0.11 98 1010.8
20260508155229 77 111 0.0 0.0 0.00 0.10 0.10 97 1010.8
20260508154725 78 111 0.0 0.0 0.47 0.08 0.08 97 1010.8
20260508154223 78 111 0.0 0.9 0.00 0.08 0.08 97 1010.5
20260508153720 78 111 0.0 0.0 0.00 0.08 0.08 97 1010.5
20260508153217 78 111 0.0 0.9 0.00 0.07 0.07 97 1010.5
20260508152713 78 73 1.7 4.3 0.00 0.07 0.07 97 1010.8
20260508152209 78 80 1.7 5.2 0.00 0.06 0.06 97 1010.8
20260508151706 77 32 0.0 2.6 0.00 0.06 0.06 98 1010.8
20260508151202 77 77 0.0 1.7 0.00 0.05 0.05 98 1010.8
20260508150659 77 77 0.9 2.6 0.00 0.05 0.05 98 1011.2
20260508150156 77 77 0.0 0.0 0.00 0.04 0.04 98 1011.2
20260508145652 77 77 0.9 1.7 0.47 0.03 0.03 97 1011.2
20260508145148 78 77 0.0 1.7 0.00 0.03 0.03 97 1011.2
20260508144646 78 71 1.7 3.5 0.00 0.03 0.03 96 1011.2
20260508144143 78 57 1.7 3.5 0.00 0.03 0.03 96 1011.5
20260508143640 78 54 0.0 1.7 0.00 0.02 0.02 96 1011.5
20260508143137 78 54 1.7 4.3 0.00 0.02 0.02 96 1011.5
20260508142634 78 50 1.7 4.3 0.00 0.02 0.02 96 1011.5
20260508142131 78 77 1.7 4.3 0.00 0.02 0.02 96 1011.5
20260508141627 78 117 1.7 4.3 0.00 0.02 0.02 95 1011.5
20260508141125 78 73 0.9 4.3 0.00 0.02 0.02 94 1011.5
20260508140622 78 132 0.9 2.6 0.00 0.02 0.02 95 1011.9
20260508140119 78 78 2.6 7.8 0.47 0.01 0.01 95 1011.9
20260508135614 78 67 0.0 1.7 0.00 0.01 0.01 95 1011.9
20260508135110 78 74 2.6 6.1 0.00 0.01 0.01 94 1011.9
20260508134607 78 102 1.7 5.2 0.00 0.01 0.01 94 1011.9
20260508134104 78 193 0.0 2.6 0.00 0.01 0.01 94 1011.9
20260508133601 78 54 1.7 4.3 0.00 0.01 0.01 95 1012.2
20260508133058 78 45 3.5 5.2 0.00 0.01 0.01 96 1011.9
20260508132556 78 105 0.0 0.0 0.00 0.01 0.01 97 1011.9
20260508132052 78 105 0.0 0.0 0.00 0.01 0.01 97 1012.2
20260508131548 78 105 0.0 0.0 0.00 0.00 0.00 97 1012.2
20260508131045 78 105 0.0 0.0 0.00 0.00 0.00 97 1011.9
20260508130542 78 105 0.0 0.0 0.00 0.00 0.00 96 1012.2
20260508130038 78 105 0.9 4.3 0.00 1.37 1.37 96 1011.9
20260508125534 78 57 2.6 4.3 0.00 1.37 1.37 97 1011.9
20260508125032 78 106 0.9 4.3 0.00 1.37 1.37 97 1012.2
20260508124530 78 50 0.9 3.5 0.00 1.36 1.36 97 1011.9
20260508124027 78 132 1.7 3.5 0.00 1.35 1.35 97 1012.2
20260508123525 78 81 1.7 3.5 0.00 1.34 1.34 97 1012.2
20260508123021 79 59 0.0 0.0 0.00 1.34 1.34 96 1012.2
20260508122518 79 116 2.6 7.0 0.00 1.34 1.34 95 1012.2
20260508122015 79 71 1.7 4.3 0.00 1.33 1.33 96 1012.2
20260508121514 78 58 1.7 4.3 0.00 1.33 1.33 97 1012.2
20260508121011 78 89 1.7 2.6 0.00 1.33 1.33 97 1012.5
20260508120508 78 89 0.0 0.0 0.00 1.33 1.33 97 1012.2
20260508120007 78 89 0.9 2.6 0.00 1.33 1.33 97 1012.5
20260508115504 78 89 0.0 1.7 0.00 1.33 1.33 97 1012.2
20260508115000 78 89 0.0 0.0 0.00 1.33 1.33 97 1012.5
20260508114457 78 89 0.0 2.6 0.00 1.33 1.33 97 1012.5
20260508113954 78 167 0.0 0.0 0.00 1.33 1.33 98 1012.5
20260508113451 78 106 0.0 0.0 0.00 1.33 1.33 98 1012.5
20260508112949 78 147 1.7 3.5 0.00 1.33 1.33 98 1012.5
20260508112445 77 289 0.0 0.0 0.00 1.33 1.33 99 1012.5
20260508111942 77 289 0.0 0.0 0.00 1.33 1.33 99 1012.5
20260508111439 77 289 0.0 0.0 0.00 1.33 1.33 99 1012.2
20260508110936 77 289 0.0 0.0 0.00 1.33 1.33 99 1012.2
20260508110434 77 289 0.0 0.0 0.00 1.33 1.33 99 1012.2
20260508105933 77 289 0.0 0.0 0.00 1.31 1.31 99 1012.2
20260508105430 77 289 0.0 0.0 0.00 1.31 1.31 99 1012.2
20260508104927 77 289 0.0 0.0 0.00 1.31 1.31 99 1011.9
20260508104424 77 289 0.0 0.0 0.00 1.31 1.31 99 1012.2
20260508103921 77 289 0.0 0.0 0.00 1.31 1.31 99 1011.9
20260508103418 77 289 0.0 0.0 0.00 1.31 1.31 99 1011.9
20260508102915 77 289 0.0 0.0 0.00 1.31 1.31 98 1011.9
20260508102414 77 47 0.0 0.0 0.00 1.31 1.31 99 1011.9
20260508101910 77 47 0.0 0.0 0.00 1.31 1.31 98 1011.9
20260508101408 78 47 0.0 0.0 0.47 1.28 1.28 98 1011.9
20260508100905 78 47 0.0 0.0 0.00 1.27 1.27 97 1011.9
20260508100404 78 47 0.0 0.0 0.00 1.27 1.27 97 1011.9
20260508095859 78 47 1.7 6.1 0.00 1.26 1.26 97 1011.9
20260508095357 78 151 0.0 0.0 0.00 1.25 1.25 97 1011.9
20260508094854 78 66 0.9 3.5 0.00 1.24 1.24 97 1011.9
20260508094350 78 108 0.0 1.7 0.00 1.24 1.24 98 1011.9
20260508093847 78 116 0.9 3.5 0.47 1.23 1.23 98 1011.9
20260508093345 78 69 0.0 0.0 0.00 1.23 1.23 98 1011.9
20260508092842 78 69 0.0 1.7 0.00 1.23 1.23 97 1011.9
20260508092340 78 33 2.6 5.2 0.00 1.23 1.23 97 1011.9
20260508091838 78 49 0.9 3.5 0.00 1.23 1.23 97 1011.9
20260508091334 78 69 0.9 2.6 0.00 1.23 1.23 98 1011.9
20260508090832 78 92 0.9 3.5 0.00 1.23 1.23 97 1011.9
20260508090331 78 74 0.9 2.6 0.00 1.23 1.23 98 1011.9
20260508085831 78 74 0.0 2.6 0.47 1.22 1.22 98 1011.5
20260508085329 78 79 0.0 0.0 0.00 1.22 1.22 98 1011.5
20260508084825 78 69 2.6 6.1 0.47 1.19 1.19 98 1011.9
20260508084322 78 70 0.0 0.0 0.00 1.19 1.19 98 1011.5
20260508083820 78 70 0.9 1.7 0.47 1.17 1.17 97 1011.5
20260508083317 78 70 0.0 0.0 0.00 1.17 1.17 97 1011.5
20260508082816 79 70 0.0 1.7 0.00 1.17 1.17 96 1011.5
20260508082314 79 70 0.0 0.9 0.00 1.17 1.17 96 1011.5
20260508081812 79 70 1.7 3.5 0.00 1.17 1.17 96 1011.5
20260508081308 79 70 0.9 1.7 0.00 1.17 1.17 96 1011.5
20260508080805 78 41 1.7 2.6 0.00 1.17 1.17 96 1011.5
20260508080303 78 36 0.0 0.0 0.00 1.17 1.17 97 1011.5
20260508075759 78 92 0.0 0.0 0.00 1.17 1.17 97 1011.5
20260508075256 78 92 0.0 0.0 0.00 1.17 1.17 96 1011.2
20260508074754 79 320 0.0 0.0 0.00 1.17 1.17 96 1011.2
20260508074251 79 334 0.0 2.6 0.00 1.17 1.17 95 1010.8
20260508073748 79 73 0.0 2.6 0.00 1.17 1.17 95 1010.8
20260508073246 79 152 1.7 4.3 0.00 1.17 1.17 95 1010.8
20260508072742 78 74 2.6 5.2 0.00 1.17 1.17 96 1010.8
20260508072239 79 61 0.9 2.6 0.00 1.17 1.17 95 1010.5
20260508071736 79 62 2.6 3.5 0.00 1.17 1.17 95 1010.5
20260508071235 79 62 0.0 1.7 0.00 1.17 1.17 95 1010.5
20260508070732 79 71 0.0 0.0 0.00 1.17 1.17 95 1010.5
20260508070231 79 58 0.9 1.7 0.00 1.17 1.17 93 1010.5
20260508065727 80 59 1.7 4.3 0.00 1.17 1.17 93 1010.2
20260508065225 80 50 0.0 1.7 0.00 1.17 1.17 93 1010.2
20260508064722 80 87 1.7 4.3 0.00 1.17 1.17 92 1010.2
20260508064221 80 45 3.5 7.0 0.00 1.17 1.17 91 1010.2
20260508063718 80 72 1.7 4.3 0.00 1.17 1.17 91 1010.2
20260508063215 80 8 2.6 3.5 0.00 1.17 1.17 91 1010.2
20260508062713 80 71 0.0 0.0 0.00 1.17 1.17 91 1009.8
20260508062210 80 71 0.0 0.9 0.00 1.17 1.17 92 1009.8
20260508061707 80 71 0.0 0.0 0.00 1.17 1.17 91 1009.8
20260508061204 80 69 2.6 8.7 0.00 1.17 1.17 92 1009.8
20260508060702 80 71 0.0 2.6 0.00 1.17 1.17 93 1009.8
20260508060158 80 64 1.7 6.1 0.00 1.17 1.17 94 1009.8
20260508055653 80 85 3.5 7.8 0.00 1.17 1.17 94 1009.8
20260508055150 80 63 1.7 5.2 0.00 1.17 1.17 94 1009.8
20260508054647 80 67 0.9 3.5 0.00 1.17 1.17 94 1009.8
20260508054145 80 75 0.9 3.5 0.00 1.17 1.17 93 1009.8
20260508053641 80 122 0.0 0.0 0.00 1.17 1.17 93 1009.8
20260508053139 80 101 2.6 7.8 0.00 1.17 1.17 92 1009.5
20260508052636 80 73 5.2 8.7 0.00 1.17 1.17 92 1009.5
20260508052133 80 98 0.9 3.5 0.00 1.17 1.17 92 1009.5
20260508051629 80 63 1.7 3.5 0.00 1.17 1.17 94 1009.5
20260508051125 80 63 2.6 6.1 0.00 1.17 1.17 94 1009.5
20260508050621 80 91 2.6 6.1 0.00 1.17 1.17 93 1009.8
20260508050119 80 64 1.7 3.5 0.00 1.17 1.17 95 1009.8
20260508045614 80 74 1.7 4.3 0.00 1.17 1.17 95 1009.5
20260508045113 80 65 0.0 2.6 0.00 1.17 1.17 95 1009.8
20260508044609 80 67 0.0 1.7 0.00 1.17 1.17 95 1009.8
20260508044106 80 67 0.9 3.5 0.00 1.17 1.17 95 1009.8
20260508043602 80 91 0.9 2.6 0.00 1.17 1.17 95 1009.8
20260508043100 80 101 0.0 1.7 0.00 1.17 1.17 94 1009.5
20260508042556 80 45 1.7 7.8 0.00 1.17 1.17 94 1009.8
20260508042054 80 56 1.7 3.5 0.00 1.17 1.17 94 1009.5
20260508041550 81 90 1.7 6.1 0.00 1.17 1.17 94 1009.8
20260508041046 81 48 1.7 3.5 0.00 1.17 1.17 94 1009.8
20260508040543 81 51 0.0 1.7 0.00 1.17 1.17 94 1009.8
20260508040041 81 51 0.0 0.9 0.00 1.17 1.17 94 1009.8
20260508035537 81 50 1.7 3.5 0.00 1.17 1.17 93 1009.8
20260508035035 81 64 2.6 5.2 0.00 1.17 1.17 93 1009.8
20260508034532 81 84 1.7 5.2 0.00 1.17 1.17 92 1009.8
20260508034029 81 93 4.3 10.4 0.00 1.17 1.17 92 1009.8
20260508033527 81 60 4.3 7.8 0.00 1.17 1.17 91 1009.8
20260508033025 81 72 3.5 7.8 0.00 1.17 1.17 92 1009.8
20260508032521 81 55 1.7 5.2 0.00 1.17 1.17 92 1009.8
20260508032019 81 88 1.7 3.5 0.00 1.17 1.17 92 1009.8
20260508031516 81 100 0.9 3.5 0.00 1.17 1.17 92 1009.8
20260508031011 81 76 0.0 2.6 0.00 1.17 1.17 92 1009.8
20260508030508 81 60 0.9 2.6 0.00 1.17 1.17 91 1009.8
20260508030007 81 67 2.6 7.0 0.00 1.17 1.17 91 1010.2
20260508025502 81 54 1.7 3.5 0.00 1.17 1.17 92 1010.2
20260508024959 81 101 1.7 7.0 0.00 1.17 1.17 91 1010.2
20260508024455 81 128 0.9 3.5 0.00 1.17 1.17 93 1010.2
20260508023952 81 60 0.0 0.0 0.00 1.17 1.17 94 1010.2
20260508023448 81 56 2.6 4.3 0.00 1.17 1.17 93 1010.2
20260508022946 82 170 0.0 1.7 0.00 1.17 1.17 91 1010.2
20260508022441 82 83 0.9 3.5 0.00 1.17 1.17 89 1010.2
20260508021938 82 54 0.9 3.5 0.00 1.17 1.17 91 1010.5
20260508021435 82 54 2.6 4.3 0.00 1.17 1.17 90 1010.2
20260508020930 82 97 0.9 3.5 0.00 1.17 1.17 90 1010.5
20260508020429 82 52 2.6 5.2 0.00 1.17 1.17 89 1010.5
20260508015925 82 68 0.0 1.7 0.00 1.17 1.17 90 1010.2
20260508015423 82 41 1.7 4.3 0.00 1.17 1.17 91 1010.5
20260508014919 82 61 0.9 3.5 0.00 1.17 1.17 91 1010.5
20260508014417 82 132 0.0 0.0 0.00 1.17 1.17 91 1010.5
20260508013917 82 132 0.0 0.0 0.00 1.17 1.17 90 1010.5
20260508013414 82 132 0.0 0.0 0.00 1.17 1.17 89 1010.5
20260508012911 82 70 0.9 1.7 0.00 1.17 1.17 90 1010.5
20260508012408 82 62 0.0 1.7 0.00 1.17 1.17 91 1010.5
20260508011906 81 77 0.9 2.6 0.00 1.17 1.17 90 1010.8
20260508011404 82 64 3.5 7.0 0.00 1.17 1.17 91 1010.8
20260508010901 81 333 0.0 0.0 0.00 1.17 1.17 92 1010.8
20260508010358 81 50 1.7 2.6 0.00 1.17 1.17 92 1010.8
20260508005855 81 53 0.9 3.5 0.00 1.17 1.17 91 1010.8
20260508005351 81 349 0.9 3.5 0.00 1.17 1.17 91 1010.8
20260508004848 81 347 1.7 3.5 0.00 1.17 1.17 91 1010.8
20260508004344 81 57 0.0 1.7 0.00 1.17 1.17 91 1010.8
20260508003841 80 290 2.6 4.3 0.00 1.17 1.17 93 1010.8
20260508003338 80 311 0.9 1.7 0.00 1.17 1.17 93 1010.8
20260508002835 80 310 1.7 3.5 0.00 1.17 1.17 92 1010.8
20260508002332 80 30 3.5 5.2 0.00 1.17 1.17 92 1010.8
20260508001828 80 59 2.6 4.3 0.00 1.17 1.17 92 1010.8
20260508001324 80 53 2.6 4.3 0.00 1.17 1.17 94 1010.8
20260508000820 80 8 0.0 1.7 0.00 1.17 1.17 95 1011.2
20260508000319 79 195 0.0 0.9 0.00 1.17 1.17 96 1011.2
20260507235814 79 195 0.0 0.0 0.00 1.17 1.17 96 1011.2
20260507235311 79 195 0.0 0.0 0.00 1.17 1.17 95 1011.5
20260507234808 79 195 0.0 0.0 0.00 1.17 1.17 96 1011.5
20260507234305 79 195 0.9 2.6 0.00 1.17 1.17 97 1011.5
20260507233801 78 195 0.0 0.0 0.00 1.17 1.17 97 1011.2
20260507233259 78 195 0.0 1.7 0.00 1.17 1.17 98 1011.2
20260507232757 78 195 0.0 0.0 0.00 1.17 1.17 99 1011.2
20260507232253 78 86 0.0 0.0 0.00 1.17 1.17 99 1011.2
20260507231749 78 86 1.7 2.6 0.00 1.17 1.17 99 1011.5
20260507231246 78 73 0.9 1.7 0.00 1.17 1.17 99 1011.5
20260507230743 78 69 0.9 2.6 0.00 1.17 1.17 99 1011.5
20260507230241 77 63 1.7 3.5 0.00 1.17 1.17 99 1011.5
20260507225740 77 63 1.7 3.5 0.00 1.17 1.17 99 1011.5
20260507225236 77 58 3.5 6.1 0.00 1.17 1.17 99 1011.9
20260507224732 77 39 1.7 3.5 0.00 1.17 1.17 99 1011.9
20260507224229 77 45 3.5 5.2 0.00 1.17 1.17 99 1011.9
20260507223725 77 76 3.5 5.2 0.00 1.17 1.17 98 1011.9
20260507223222 77 25 2.6 4.3 0.00 1.17 1.17 98 1011.9
20260507222719 77 60 3.5 6.1 0.00 1.16 1.16 98 1011.9
20260507222215 77 71 3.5 7.8 0.00 1.16 1.16 98 1011.9
20260507221712 77 36 1.7 3.5 0.00 1.16 1.16 97 1011.9
20260507221208 77 55 4.3 7.8 0.00 1.16 1.16 98 1011.9
20260507220705 77 65 2.6 5.2 0.00 1.16 1.16 98 1012.2
20260507220203 77 56 4.3 7.0 0.00 1.16 1.16 98 1012.2
20260507215659 77 80 3.5 6.1 0.00 1.16 1.16 98 1012.2
20260507215157 77 31 1.7 4.3 0.00 1.16 1.16 98 1012.2
20260507214654 77 48 2.6 7.0 0.00 1.16 1.16 99 1012.2
20260507214150 77 65 2.6 5.2 0.00 1.16 1.16 99 1012.2
20260507213646 77 55 1.7 6.1 0.47 1.15 1.15 99 1012.2
20260507213144 77 57 1.7 4.3 0.00 1.15 1.15 98 1012.2
20260507212639 77 71 2.6 9.6 0.00 1.15 1.15 99 1012.2
20260507212136 77 66 2.6 5.2 0.00 1.15 1.15 99 1011.9
20260507211633 77 68 1.7 3.5 0.00 1.15 1.15 99 1012.2
20260507211129 77 51 2.6 6.1 0.00 1.14 1.14 99 1011.9
20260507210627 77 48 3.5 4.3 0.47 1.13 1.13 99 1012.2